DMSP 5D-2 F11 DEB, 28335

Orbit data source: Space-Track

DMSP 5D-2 F11 DEB, 28335 is space debris in SSO originally from a launch on Thu, 28 Nov 1991 UTC launched from the Air Force Western Test Range (AFWTR). Debris objects in space refer to the collection of defunct objects orbiting the Earth. Examples of debris include non-operational satellites, rocket bodies, and fragments generated from explosions, collisions, or faulty payload assembly.

Loading next visibility...
Identifier
28335, 1991-082AY
Orbit
SSO
Country
Flag of USUS
Related business
Manufacturer
Unknown
Mission
Spacecraft
Bus & Motor
Unknown
Mass
Unknown
Launch date (UTC)
1991-11-28 (35 years ago)
Launch vehicle
Unknown
Launch site
Air Force Western Test Range (AFWTR)
Object type
Payload
Rocket body
Debris
Shape & HBR
Unknown shape, 0.1 m
Radar Cross Section
Small (<0.1 m²)

Expand to show TLE details & history
Last TLE update: 3 days ago

TLE from 3 days ago
0 DMSP 5D-2 F11 DEB
1 28335U 91082AY  26205.96200574  .00004494  00000-0  12142-2 0  9992
2 28335  98.5581 281.9034 0010931 134.0281 226.1814 14.48264841680470
Epoch: 2026-07-24T23:05Z
TLE epoch observation values (Epoch: 2026-07-24T23:05:17.295Z)
Latitude
-0.00004°
Longitude
-7.09978°
Altitude
739.666 km
Speed
7.482 km/s
True Right ascension
18h 47m 36s
True Declination
0° 00' 00"
Sunlit
Object was in full shadow at epoch
Visualization orbit readout
Latitude
Unknown
Longitude
Unknown
Altitude
Unknown
Speed
Unknown
Apparent Right ascension
Unknown
Apparent Declination
Unknown
Sunlit
N/A
Visualization observer readout
Local Sidereal Time
15:13:53
Azimuth
Unknown
Elevation
Unknown
Doppler factor
Unknown
Orbital elements
Apogee altitude
736.203 km
Perigee altitude
720.667 km
Semi-major axis
7,106.572 km
Eccentricity
0.00109
Inclination
98.5581°
RAAN
281.9034°
Arg. of periapsis
134.0281°
True anomaly
226.09111°
Mean anomaly
226.1814°
Eccentric anomaly
226.13624°
Mean motion
3.62287 °/min
Orbital period
99.37 mins
BSTAR
0.0012142
Loading maneuver chart data...
Computing Atmospheric mass density...

Documentation

Showing up to 5 results
|